User: anonymous   Login
Location: Unspecified
(0.0000°N, 0.0000°E)
Time: 10:43:28
(UTC+00:00)
Language:

STEP CUBE LAB - Orbit

View from above orbital plane
View from above orbital plane
View from above satellite
View from above satellite

Ground track
Ground track

The orbit data is extracted from the following two-line orbital elements,

1 43138U 18004AD  21016.75789501  .00001883  00000-0  75860-4 0  9994
2 43138  97.4280  93.5746 0009280  32.6623 327.5187 15.26076057167619
Epoch (UTC): 16 January 2021 18:11:22
Eccentricity: 0.0009280
inclination: 97.4280°
perigee height: 481 km
apogee height: 494 km
right ascension of ascending node: 93.5746°
argument of perigee: 32.6623°
revolutions per day: 15.26076057
mean anomaly at epoch: 327.5187°
orbit number at epoch: 16761

The dashed part of the orbit path shows where the satellite is in the earth's shadow,  

DLR